Probability
0 2 4 4 2 3 3 3 4 6 6 5 3 2 1 0 0 0 0 0 0 0 0 0 0 0 0 0 0 0 0 0 0 0 0 0 0 0 0 0 0 0 0
2 4 5 4 3 3 3 3 4 5 6 5 4 3 2 1 0 0 0 0 0 0 0 0 0 0 0 0 0 0 0 0 0 0 0 0 0 0 0 0 0 0 0
7 6 5 5 4 4 4 5 6 6 6 5 4 5 5 3 2 1 1 0 0 0 0 0 0 0 0 0 0 0 0 0 0 0 0 0 0 0 0 0 0 0 0
12 8 7 7 7 7 6 8 9 7 5 4 3 4 5 5 5 5 4 2 1 1 1 0 0 0 0 0 0 0 0 0 0 0 0 0 0 0 0 0 0 0 0
15 12 9 10 11 9 7 9 10 8 4 2 2 3 4 5 6 6 6 5 4 3 3 2 1 1 1 1 0 0 0 0 0 0 0 0 0 0 0 0 0 0 0
17 14 11 11 12 10 9 10 11 10 6 3 2 2 3 3 5 6 7 6 5 5 5 4 2 2 2 1 0 0 0 0 0 0 0 0 0 0 0 0 0 0 0
17 15 12 12 12 11 10 10 10 11 9 7 4 3 3 3 4 6 7 6 6 5 4 3 3 3 2 0 0 0 0 0 0 0 0 0 0 0 0 0 0 0 0
17 16 14 13 12 13 12 10 9 11 12 9 7 5 3 3 4 5 6 6 6 5 5 4 5 5 4 2 0 0 0 0 0 0 0 0 0 0 0 0 0 0 0
17 17 16 13 11 13 14 12 9 10 11 10 8 5 3 3 3 4 5 5 5 5 6 8 9 9 8 5 2 0 0 0 0 0 0 0 0 0 0 0 0 0 0
16 16 15 13 11 12 13 11 9 9 9 8 6 4 2 2 3 3 3 4 5 5 8 10 11 11 9 6 3 0 0 0 0 0 0 0 0 0 0 0 0 0 0
13 14 14 14 13 13 11 9 7 6 5 4 3 2 1 2 3 3 3 3 4 5 7 9 10 9 7 4 1 0 0 0 0 0 0 0 0 0 0 1 1 1 1
10 10 11 12 13 12 11 8 5 3 2 1 1 0 1 2 3 3 3 3 3 3 3 5 5 5 3 1 0 0 0 0 0 0 0 0 0 0 0 1 2 3 2
7 6 7 8 9 10 9 7 5 3 1 0 0 0 1 2 3 3 3 1 1 1 1 2 2 1 1 0 0 0 0 0 0 0 0 0 0 0 0 1 2 3 3
6 4 4 6 8 8 8 7 5 4 2 1 0 0 1 2 3 3 2 1 0 0 1 1 1 0 0 0 0 0 0 0 0 0 0 0 0 0 0 0 1 3 3
4 4 3 5 7 7 7 7 6 4 2 1 0 0 1 2 3 3 1 0 0 0 1 1 1 0 0 0 0 0 0 0 0 0 0 0 0 0 0 0 1 2 4
3 3 4 4 5 6 6 6 6 3 1 0 0 1 1 3 3 2 1 0 0 0 0 0 0 0 0 0 0 0 0 0 0 0 0 0 0 0 0 0 1 2 3
3 4 4 4 3 4 5 6 5 3 1 0 1 2 3 3 2 1 0 0 0 0 0 0 0 0 0 0 0 0 0 0 0 0 0 0 0 0 0 0 2 2 2
3 4 4 4 3 3 4 5 4 3 1 1 2 3 3 3 1 0 0 0 0 0 0 0 0 1 1 0 0 0 0 0 0 0 0 0 0 0 0 0 1 1 1
3 3 3 3 3 3 3 4 3 3 3 3 3 3 3 2 1 0 0 0 0 0 0 0 0 0 1 1 1 0 0 0 0 0 0 0 0 0 0 0 0 0 0
3 3 2 2 3 3 3 3 3 4 5 5 4 3 2 2 1 0 0 0 0 0 0 0 0 0 1 2 1 0 0 0 0 0 0 0 0 0 0 0 0 0 0
3 3 2 2 3 3 3 3 4 5 6 6 4 2 1 1 0 0 0 0 0 0 1 1 1 0 1 2 1 0 0 0 0 0 0 0 0 0 0 0 0 0 0
3 3 3 3 3 3 3 4 5 6 6 5 4 2 0 0 0 0 0 0 0 0 1 2 1 0 2 3 2 1 0 0 0 0 0 0 0 0 0 0 0 0 0
1 2 2 3 3 3 3 4 5 6 6 4 3 2 1 0 0 0 0 0 0 0 1 2 1 0 1 3 3 2 0 0 0 0 0 0 0 0 0 0 0 0 0
0 1 1 1 2 2 2 2 4 4 4 3 3 3 2 1 0 0 0 0 1 0 1 2 2 0 1 2 3 1 0 0 0 0 0 0 0 0 0 0 0 0 0
0 0 0 0 1 1 0 1 2 2 2 1 2 2 2 1 0 0 0 0 0 0 1 1 1 0 1 2 2 1 0 0 0 0 0 0 0 0 0 0 0 0 0
0 0 0 0 0 0 0 0 1 1 0 0 1 1 1 0 0 0 0 0 0 0 0 1 0 0 1 2 2 1 0 0 0 0 0 0 0 0 0 0 0 0 0
Wind_Speed
2 3 5 6 7 8 8 8 8 8 8 8 8 9 9 9 8 8 8 8 8 8 8 9 10 10 10 10 10 11 11 11 12 12 11 11 12 12 13 12 11 8 14
4 4 5 7 7 7 7 7 8 8 8 8 8 8 8 8 8 8 8 7 8 8 8 8 9 9 10 10 10 10 11 11 11 11 9 8 9 11 12 12 11 8 13
5 4 5 7 7 7 7 7 7 7 7 7 7 7 7 7 7 7 7 7 7 7 7 8 8 9 9 10 10 10 11 11 11 10 8 5 6 11 12 12 12 12 12
5 4 4 7 8 7 7 7 7 7 7 6 6 6 6 6 6 6 6 7 7 7 7 8 8 8 9 10 10 10 10 10 10 8 4 3 4 9 11 11 11 12 12
4 3 4 7 7 7 6 6 6 6 6 6 5 5 5 5 5 5 6 6 7 7 7 7 8 8 9 9 9 10 10 10 9 7 4 3 3 8 10 10 10 10 10
4 3 4 7 7 7 6 6 6 6 6 5 5 5 5 5 5 4 5 6 7 7 7 7 8 8 8 9 9 9 10 9 7 4 4 3 2 7 9 9 9 9 9
4 3 3 6 6 6 6 5 5 5 5 5 5 4 4 4 5 5 6 6 6 6 6 7 8 8 8 9 9 9 9 9 5 4 3 2 3 8 8 8 8 8 8
4 3 2 5 5 5 5 5 5 5 5 5 4 4 4 4 5 5 5 5 5 6 6 7 7 8 8 8 9 9 8 7 6 4 3 2 4 7 8 7 7 7 8
3 3 2 2 3 4 4 4 4 4 4 4 4 4 3 4 4 4 4 4 4 5 5 6 6 7 7 8 8 8 8 7 4 3 3 2 4 6 7 7 7 7 7
3 2 2 2 2 2 2 3 3 3 4 3 3 3 4 3 3 3 3 4 4 4 4 5 6 7 7 7 7 8 7 6 3 3 2 2 4 5 5 6 6 6 7
2 2 2 2 2 2 2 2 3 3 3 3 3 3 3 2 2 2 3 3 4 3 4 4 5 6 6 6 7 7 6 3 3 2 1 2 3 4 5 5 6 6 7
4 3 2 2 2 2 2 2 1 1 2 2 2 2 2 2 2 3 3 3 3 3 3 3 4 5 5 3 4 5 2 3 2 1 1 2 3 4 4 5 6 6 7
5 4 3 3 3 3 2 1 1 1 1 1 2 2 2 2 2 2 1 1 2 2 1 2 2 2 2 2 2 2 2 2 1 1 1 2 3 4 5 4 5 6 7
4 5 3 3 3 3 2 1 1 1 1 1 1 2 2 1 1 1 1 1 1 1 1 1 1 2 2 2 3 3 3 2 1 1 1 2 3 3 4 4 4 5 7
5 5 4 4 3 3 2 2 2 2 1 1 1 1 2 2 2 1 1 1 0 1 1 2 2 2 2 2 2 3 2 2 2 2 1 2 2 2 3 3 4 4 5
5 5 4 4 4 3 3 2 2 2 1 1 1 1 2 2 2 2 1 1 0 1 1 2 2 2 2 2 2 2 2 2 2 2 1 1 2 2 2 3 3 4 4
5 4 4 4 4 4 3 3 2 2 2 1 1 1 2 2 2 2 1 1 1 1 2 2 2 2 2 2 2 2 2 2 2 2 1 1 0 0 1 3 3 4 4
4 4 4 3 4 4 3 3 2 2 2 2 1 2 2 2 2 2 2 1 1 1 2 2 2 2 2 2 1 1 1 2 2 2 1 1 1 0 0 1 3 4 4
5 4 4 3 4 4 3 3 2 2 2 2 1 2 2 2 2 2 2 1 1 2 2 2 2 2 2 2 2 2 1 1 1 1 1 1 1 1 0 0 2 2 3
4 4 3 3 3 3 3 2 2 2 1 1 1 1 2 2 2 2 2 2 2 2 2 2 3 2 2 2 2 2 1 1 1 1 1 1 1 1 1 0 1 1 1
3 3 3 3 3 3 2 2 2 2 2 1 1 2 2 2 2 2 2 2 2 2 3 3 3 3 2 2 2 2 1 1 1 0 0 1 1 0 1 1 1 0 0
4 4 4 4 4 4 3 3 2 2 2 1 1 1 2 2 2 2 3 2 2 2 3 3 3 2 2 2 3 2 1 1 1 1 0 0 0 0 0 0 1 1 1
3 4 4 4 4 4 3 3 2 2 1 1 1 1 2 2 2 2 3 3 3 3 3 3 4 4 3 2 2 3 3 3 1 1 0 0 0 0 0 0 1 1 1
3 3 3 3 3 3 4 4 4 3 2 2 2 1 1 2 2 2 3 3 3 3 3 3 3 3 4 3 1 1 1 3 3 1 1 1 1 1 1 1 1 1 1
2 3 3 3 3 3 4 5 4 2 2 1 1 1 1 1 1 2 3 3 3 3 3 3 3 3 3 4 3 2 2 1 1 2 1 1 1 1 1 1 1 1 1
1 1 2 3 3 3 4 4 4 3 2 2 1 1 1 1 1 2 2 2 3 3 4 4 4 4 4 4 3 3 3 3 3 2 2 2 2 1 1 1 2 2 2
Wind_Direction
189 195 181 149 140 131 124 119 113 110 106 102 104 108 111 114 118 118 116 118 115 113 112 112 111 111 109 106 105 104 102 98 94 92 91 93 96 96 95 92 88 84 92
161 172 161 147 144 138 130 125 116 110 106 106 106 108 114 120 122 125 123 120 118 116 114 116 114 111 111 110 108 106 102 99 94 90 85 89 95 99 99 99 95 93 93
140 156 153 146 141 137 132 127 121 115 109 106 109 109 112 121 124 126 128 125 121 118 118 119 118 115 112 110 111 111 107 104 100 92 85 78 94 103 102 101 99 96 95
140 144 149 141 137 138 136 130 125 120 116 111 109 110 113 117 122 122 126 123 121 118 118 119 120 118 117 114 114 114 112 107 100 91 76 71 87 106 106 103 100 98 98
130 133 147 139 137 137 135 132 128 124 120 117 112 106 110 115 117 123 120 117 114 110 115 119 120 120 118 117 117 116 115 109 96 84 76 70 76 105 104 102 100 99 100
126 124 141 137 137 134 133 134 132 128 127 121 115 113 112 114 117 114 111 108 110 109 113 118 119 120 118 118 120 119 115 109 97 85 82 79 84 108 107 104 104 104 105
129 122 140 140 138 137 137 138 137 133 130 125 120 117 116 113 109 108 106 106 111 119 120 120 120 117 117 119 120 118 114 109 101 95 92 91 108 114 110 108 107 109 110
130 115 118 134 134 135 137 139 140 138 130 126 123 116 113 106 100 100 104 111 115 127 129 126 124 119 118 119 119 117 116 113 108 105 102 101 117 116 115 114 113 113 117
116 111 101 105 112 119 124 128 133 131 123 117 117 111 104 100 98 98 99 104 110 125 128 127 128 124 122 124 121 117 114 111 104 100 104 106 121 124 124 124 124 122 121
113 115 111 104 96 95 108 116 118 118 114 108 94 91 88 89 93 91 90 89 92 109 117 122 128 125 123 120 120 115 110 106 103 102 94 113 126 129 130 132 134 129 125
155 146 138 123 110 104 103 106 102 98 95 96 89 86 84 79 83 76 71 80 84 95 117 120 129 123 116 114 116 115 107 102 110 105 107 117 136 131 128 131 133 129 133
189 185 164 148 139 125 109 93 97 96 92 89 100 99 94 87 79 75 73 73 77 81 107 117 120 120 107 105 110 110 106 112 112 121 134 139 146 139 131 129 132 129 132
191 185 179 170 155 144 131 122 111 107 99 93 103 110 109 95 83 71 73 54 54 63 76 82 93 93 102 108 110 113 117 120 123 144 156 152 153 139 130 125 123 124 130
188 195 188 175 164 157 145 148 143 136 130 124 120 117 119 113 105 100 89 74 61 74 98 93 100 104 109 117 121 124 124 128 130 139 134 138 155 151 142 134 130 129 130
197 201 197 185 178 166 149 165 150 152 153 152 136 129 133 138 140 130 119 104 103 117 127 126 126 122 121 125 125 128 132 135 127 120 103 117 130 148 162 163 156 147 138
206 206 195 188 182 170 166 171 159 153 152 146 152 152 145 142 143 144 148 139 143 143 140 144 141 136 135 133 129 134 139 133 128 130 117 108 125 139 171 183 177 166 154
205 201 197 195 179 174 174 175 157 156 155 168 176 161 155 150 151 152 161 171 190 154 132 128 127 126 124 122 128 130 133 132 133 136 130 126 136 96 183 189 186 175 170
193 191 197 188 173 176 173 166 161 157 160 176 172 159 161 161 157 153 164 182 190 154 145 149 144 141 141 134 128 128 125 132 140 131 117 104 106 70 263 190 184 174 175
194 188 187 177 172 174 166 157 160 156 165 172 164 162 164 163 161 160 170 175 171 157 157 164 149 154 156 144 133 109 98 119 133 119 124 129 133 105 92 176 157 158 169
193 186 183 174 170 159 145 133 132 137 158 158 164 170 164 165 161 156 165 167 164 158 163 161 154 146 151 150 129 97 71 66 81 103 160 155 137 125 131 121 164 188 182
184 179 180 175 172 153 146 153 156 173 174 170 177 174 169 169 168 165 169 169 174 175 180 166 154 149 138 129 112 94 46 48 68 67 94 95 67 138 150 158 151 146 209
188 188 185 187 177 171 169 167 164 163 173 175 171 169 176 180 180 174 177 182 181 173 171 168 156 151 147 145 136 135 115 352 335 339 40 119 102 59 98 192 162 156 152
198 195 191 192 182 173 157 139 117 103 95 122 165 191 204 209 197 183 189 182 180 178 183 186 178 164 164 175 159 153 157 199 207 312 298 298 282 169 217 224 200 184 178
207 197 184 178 172 165 153 153 156 162 177 199 193 200 222 211 208 186 188 185 181 182 183 193 187 177 166 174 166 135 141 150 158 199 307 284 255 240 239 243 234 216 202
192 180 171 156 158 163 161 163 164 165 175 160 149 182 210 215 212 189 188 184 186 188 190 190 185 182 180 180 175 163 139 116 136 161 220 267 300 263 242 232 230 221 218
119 137 147 153 161 161 163 164 168 169 165 151 158 184 205 215 212 194 188 183 186 190 194 194 191 190 191 184 183 175 167 167 172 165 188 212 245 270 265 234 220 221 220